Content
SEND FEEDBACK

Daily
Averages
Monthly
Summary
Turkmenistan

KURTILE, TURKMENISTAN


Home > Asia > Turkmenistan
Elevation: 748 feet     Latitude: 37 58N     Longitude: 058 19E

WEATHER
 
SELECT A DAY
Number of Records: 181,150;   Date Range: 3/15/97 - 10/20/14
 
SHARE

PRINT THIS DATA

[ ← Previous Day ]
WEATHER ALMANAC - JULY 26, 2013
[ Next Day → ]
[ °C ]   °F
Weather ElementAverageHighLow
Temperature92.2 °F102.2 °F (5:00 pm)83 °F (5:00 am)
Dewpoint61.3 °F67 °F (5:00 am)57.2 °F (6:00 pm)
Humidity34.3 %48 % (5:00 am)19 % (5:00 pm)
Barometer29.59 in29.65 in (7:00 am)29.50 in (6:00 pm)
Wind Speed7 mph13.4 mph (9:00 pm)
Weather ElementAverage
Visibility6.2 mi
Wind DirectionWNW (275.9 °)

Weather ElementTotal
Precipitation---
Cooling Degree Days27.6 (Base 65)
Growing Degree Days42.6 (Base 50)
Averaged from 32 records on July 26, 2013
WEATHER CONDITIONS BREAKOUT
WIND DIRECTION BREAKOUT
WEATHER BY HOUR - JULY 26, 2013
[ °C ]   °F
Local TimeTemperatureDewpointHumidityBarometerVisibilityWind DirectionWind SpeedGust SpeedPrecipitationEventsConditions
1:00 AM89.6 °F60.8 °F38 %29.62 in6.2 miWest (280°)8.9 mphScattered Clouds
2:00 AM88.0 °F64.0 °F35 %29.62 in6.0 miWNW (290°)6.7 mphScattered Clouds
2:00 AM87.8 °F60.8 °F40 %29.62 in6.2 miWNW (290°)8.9 mphScattered Clouds
3:00 AM86.0 °F60.8 °F43 %29.62 in6.2 miSW (230°)4.5 mphScattered Clouds
4:00 AM84.2 °F60.8 °F45 %29.62 in6.2 miSW (220°)4.5 mphPartly Cloudy
5:00 AM83.0 °F67.0 °F48 %29.62 in6.0 miWNW (290°)4.5 mphScattered Clouds
5:00 AM84.2 °F60.8 °F45 %29.62 in6.2 miVariable2.2 mphPartly Cloudy
6:00 AM84.2 °F60.8 °F45 %29.62 in6.2 miWest (280°)4.5 mphPartly Cloudy
7:00 AM84.2 °F62.6 °F48 %29.65 in6.2 miWNW (290°)4.5 mphPartly Cloudy
8:00 AM85.0 °F67.0 °F45 %29.62 in6.0 miWNW (300°)6.7 mphScattered Clouds
8:00 AM86.0 °F60.8 °F43 %29.65 in6.2 miWNW (300°)6.7 mphPartly Cloudy
8:30 AM87.8 °F60.8 °F40 %29.65 in6.2 miWNW (300°)6.7 mphPartly Cloudy
9:00 AM87.8 °F62.6 °F43 %29.65 in6.2 miNW (320°)8.9 mphPartly Cloudy
10:00 AM89.6 °F62.6 °F40 %29.65 in6.2 miNNW (340°)6.7 mphScattered Clouds
11:00 AM90.0 °F65.0 °F33 %29.61 in6.0 miNNW (340°)6.7 mphScattered Clouds
11:00 AM93.2 °F60.8 °F34 %29.62 in6.2 miNorth (10°)4.5 mphScattered Clouds
12:00 PM95.0 °F59.0 °F30 %29.59 in6.2 miWSW (250°)4.5 mphPartly Cloudy
1:00 PM96.8 °F59.0 °F28 %29.59 in6.2 miNorth (360°)6.7 mphClear
2:00 PM98.0 °F63.0 °F22 %29.55 in6.0 miWest (270°)4.5 mph
2:00 PM98.6 °F59.0 °F27 %29.56 in6.2 miNW (310°)4.5 mphClear
3:00 PM100.4 °F59.0 °F25 %29.56 in6.2 miWNW (290°)4.5 mphPartly Cloudy
4:00 PM100.4 °F59.0 °F25 %29.53 in6.2 miNW (310°)4.5 mphScattered Clouds
5:00 PM100.0 °F62.0 °F19 %29.53 in6.0 miWNW (290°)6.7 mphScattered Clouds
5:00 PM102.2 °F59.0 °F24 %29.53 in6.2 miNW (310°)6.7 mphPartly Cloudy
6:00 PM102.2 °F57.2 °F22 %29.50 in6.2 miNW (310°)4.5 mphScattered Clouds
7:00 PM100.4 °F60.8 °F27 %29.53 in6.2 miWNW (300°)11.2 mphPartly Cloudy
8:00 PM99.0 °F64.0 °F23 %29.50 in6.0 miWNW (300°)11.2 mphScattered Clouds
8:00 PM96.8 °F60.8 °F30 %29.53 in6.2 miWNW (300°)11.2 mphPartly Cloudy
9:00 PM95.0 °F59.0 °F30 %29.56 in6.2 miWNW (300°)13.4 mphScattered Clouds
10:00 PM91.4 °F59.0 °F34 %29.59 in6.2 miWNW (290°)13.4 mphClear
11:00 PM91.0 °F64.0 °F31 %29.58 in6.0 miWest (280°)8.9 mph
11:00 PM91.4 °F59.0 °F34 %29.59 in6.2 miWest (280°)11.2 mphClear
Hourly data recorded from UTAA, located miles away from Kurtile, Turkmenistan







STORIES FROM OUR PARTNERS